Thermal, CA

12:01 AM PDT on June 24, 2017 (GMT -0700)
Desert Resorts Regional

Weather History for KTRM - November, 2011

Change the Weather History Date:

Saturday, November 26, 2011

  Actual Average Record
Temperature  
Mean Temperature 64 °F 56 °F  
Max Temperature 86 °F 74 °F 93 °F (1954)
Min Temperature 42 °F 39 °F 20 °F (2010)
Degree Days  
Heating Degree Days 1 9  
Month to date heating degree days 182 119  
Since 1 July heating degree days 187 130  
Cooling Degree Days 0 0  
Month to date cooling degree days 2 33  
Year to date cooling degree days 3797 3686  
Growing Degree Days 15 (Base 50)    
Moisture  
Dew Point 29 °F    
Average Humidity 40    
Maximum Humidity 71    
Minimum Humidity 8    
Precipitation  
Precipitation 0.00 in 0.01 in 0.31 in (2008)
Month to date precipitation 0.26 0.19  
Year to date precipitation 1.84 2.81  
Since 1 July precipitation 0.92  
Snow  
Snow 0.00 in - - ()
Month to date snowfall 0.0  
Year to date snowfall 0.0  
Snow Depth 0.00 in    
Sea Level Pressure  
Sea Level Pressure 30.26 in    
Wind  
Wind Speed 7 mph (NW)    
Max Wind Speed 14 mph    
Max Gust Speed 17 mph    
Visibility 10 miles    
Events      
T = Trace of Precipitation, MM = Missing Value Source: NWS Daily Summary

Daily Weather History Graph

Daily Weather History Graph

Search for Another Location

Airport or City:

Trip Planner

Search our weather history database for the weather conditions in past years. The results will help you decide how hot, cold, wet, or windy it might be!

Date:

Astronomy

Nov. 26, 2011 Rise Set
Actual Time 6:26 AM PST 4:37 PM PST
Civil Twilight 5:59 AM PST 5:04 PM PST
Nautical Twilight 5:28 AM PST 5:34 PM PST
Astronomical Twilight 4:58 AM PST 6:04 PM PST
Moon 7:58 AM PST (11/26) 6:15 PM PST (11/26)
Length of Visible Light 11h 04m
Length of Day
10h 10m
Waxing Crescent, 4% of the Moon is Illuminated
Nov 26
Waxing Crescent
Dec 2
First Quarter
Dec 10
Full
Dec 17
Last Quarter
Dec 24
New

Hourly Weather History & Observations

Time (PST) Temp. Windchill Dew Point Humidity Pressure Visibility Wind Dir Wind Speed Gust Speed Precip Events Conditions
12:52 AM 55.0 °F - 39.0 °F 55% 30.20 in 10.0 mi North 10.4 mph - N/A   Clear
1:52 AM 52.0 °F - 39.0 °F 61% 30.21 in 10.0 mi Variable 4.6 mph - N/A   Clear
2:52 AM 44.1 °F 42.5 °F 36.0 °F 73% 30.22 in 10.0 mi NE 3.5 mph - N/A   Clear
3:52 AM 52.0 °F - 35.1 °F 53% 30.22 in 10.0 mi NNW 8.1 mph - N/A   Clear
4:52 AM 45.0 °F 41.8 °F 34.0 °F 65% 30.24 in 10.0 mi East 5.8 mph - N/A   Clear
5:52 AM 46.0 °F 43.9 °F 33.1 °F 61% 30.25 in 10.0 mi NW 4.6 mph - N/A   Clear
6:52 AM 44.1 °F 41.5 °F 34.0 °F 68% 30.28 in 10.0 mi WSW 4.6 mph - N/A   Clear
7:52 AM 55.9 °F - 34.0 °F 44% 30.30 in 10.0 mi NNW 4.6 mph - N/A   Clear
8:52 AM 66.0 °F - 37.0 °F 34% 30.30 in 10.0 mi Calm Calm - N/A   Clear
9:52 AM 80.1 °F - 25.0 °F 13% 30.30 in 10.0 mi WNW 11.5 mph - N/A   Clear
10:52 AM 82.0 °F - 21.0 °F 10% 30.28 in 10.0 mi NW 11.5 mph - N/A   Clear
11:52 AM 82.9 °F - 21.0 °F 10% 30.25 in 10.0 mi WNW 10.4 mph - N/A   Clear
12:52 PM 84.0 °F - 18.0 °F 9% 30.23 in 10.0 mi West 8.1 mph - N/A   Clear
1:52 PM 86.0 °F - 18.0 °F 8% 30.21 in 10.0 mi WNW 8.1 mph - N/A   Clear
2:52 PM 84.0 °F - 19.0 °F 9% 30.22 in 10.0 mi Variable 3.5 mph - N/A   Clear
3:52 PM 82.9 °F - 23.0 °F 11% 30.22 in 10.0 mi Calm Calm - N/A   Clear
4:52 PM 64.0 °F - 33.1 °F 31% 30.24 in 10.0 mi Calm Calm - N/A   Clear
5:52 PM 59.0 °F - 33.1 °F 38% 30.26 in 10.0 mi Calm Calm - N/A   Clear
6:52 PM 55.9 °F - 34.0 °F 44% 30.27 in 10.0 mi North 4.6 mph - N/A   Clear
7:52 PM 60.1 °F - 28.9 °F 31% 30.28 in 10.0 mi North 8.1 mph - N/A   Clear
8:52 PM 57.9 °F - 27.0 °F 31% 30.30 in 10.0 mi North 5.8 mph - N/A   Clear
9:52 PM 52.0 °F - 28.9 °F 41% 30.31 in 10.0 mi West 5.8 mph - N/A   Clear
10:52 PM 48.9 °F - 28.0 °F 44% 30.32 in 10.0 mi West 3.5 mph - N/A   Clear
11:52 PM 50.0 °F - 28.0 °F 43% 30.31 in 10.0 mi Calm Calm - N/A   Clear